Volver al catálogo

CZ-4 DEB

ActivoSSO
NORAD 23258·DEBRIS·🇨🇳 China

Lanzado Sep 3, 1990 desde Taiyuan Satellite Launch Center

Loading…

Próximos Pases (próximas 24 horas)

TLE

ActualizadoSource: Space-Track

Época: Sep 13, 2026, 16:15 UTC

1 23258U 90081CP  26256.67754153  .00000305  00000-0  16212-3 0  9990
2 23258  98.7125 243.3653 0022014 149.9640 210.2804 14.20404371772191

Sigue CZ-4 DEB en tiempo real con AllMySat

Download on the App Store